Location: Peach Mountain Observatory
(42.3967°N, 83.9367°W)
Time: 11:12:21
(UTC-05:00)

deb Explorer IX - Pass Details

Date: 31 January 2020
Orbit: 549 x 1099 km, 38.8° (Epoch: 17 February)

Event Time Altitude Azimuth Distance (km) Brightness Sun altitude
Rises 20:41:40 0° 249° (WSW) 3,456 ? -32.2°
Reaches altitude 10° 20:44:08 10° 245° (WSW) 2,597 ? -32.6°
Enters shadow 20:48:42 46° 216° (SW) 1,288 ? -33.5°
